Weather History for FVHA - September, 2012

Change the Weather History Date:

Saturday, September 15, 2012

  Actual Average Record
Temperature  
Mean Temperature 68 °F -  
Max Temperature 82 °F 82 °F 84 °F (2011)
Min Temperature 54 °F 54 °F 46 °F (2002)
Cooling Degree Days 3    
Growing Degree Days 18 (Base 50)    
Moisture  
Dew Point 42 °F    
Average Humidity 41    
Maximum Humidity 82    
Minimum Humidity 10    
Precipitation  
Precipitation 0.00 in 0.03 in - ()
Sea Level Pressure  
Sea Level Pressure 30.34 in    
Wind  
Wind Speed 9 mph ()    
Max Wind Speed 14 mph    
Max Gust Speed 21 mph    
Visibility 7.5 miles    
Events      
Averages and records for this station are not official NWS values.
T = Trace of Precipitation, MM = Missing Value Source: Averaged Metar Reports

Daily Weather History Graph

Daily Weather History Graph

Search for Another Location

Airport or City:

Trip Planner

Search our weather history database for the weather conditions in past years. The results will help you decide how hot, cold, wet, or windy it might be!

Date:

Astronomy

Sep. 15, 2012 Rise Set
Actual Time 5:50 AM CAT 5:50 PM CAT
Civil Twilight 5:29 AM CAT 6:12 PM CAT
Nautical Twilight 5:03 AM CAT 6:37 PM CAT
Astronomical Twilight 4:38 AM CAT 7:02 PM CAT
Moon 5:01 AM CAT (9/15) 5:19 PM CAT (9/15)
Length of Visible Light 12h 43m
Length of Day
11h 59m
Waning Crescent, 1% of the Moon is Illuminated
Sep 15
Waning Crescent
Sep 16
New
Sep 22
First Quarter
Sep 30
Full
Oct 8
Last Quarter

Hourly Weather History & Observations

Time (CAT) Temp. Dew Point Humidity Pressure Visibility Wind Dir Wind Speed Gust Speed Precip Events Conditions
1:00 AM 57.2 °F 46.4 °F 67% 30.33 in 5.0 mi ESE 8.1 mph - N/A   Partly Cloudy
2:00 AM 59 °F 49 °F 62%  in 12 mi ESE 10.4 mph - -   Haze
3:00 AM 55.4 °F 50.0 °F 82% 30.30 in 5.0 mi East 8.1 mph - N/A   Partly Cloudy
5:00 AM 55.4 °F 50.0 °F 82% 30.33 in 5.0 mi ESE 9.2 mph - N/A   Partly Cloudy
6:00 AM 55.4 °F 50.0 °F 82% 30.36 in 3.1 mi ESE 6.9 mph - N/A   Haze
7:00 AM 59.0 °F 50.0 °F 72% 30.39 in - ESE 8.1 mph - N/A   Clear
8:00 AM 64 °F 45 °F 39%  in 12 mi SE 10.4 mph - -   Haze
8:00 AM 64.4 °F 44.6 °F 49% 30.39 in - SE 10.4 mph - N/A   Clear
9:00 AM 69.8 °F 46.4 °F 43% 30.42 in - East 12.7 mph - N/A   Clear
10:00 AM 73.4 °F 42.8 °F 33% 30.42 in - East 12.7 mph - N/A   Clear
11:00 AM 75.2 °F 41.0 °F 29% 30.42 in - ENE 9.2 mph - N/A   Clear
12:00 PM 77.0 °F 39.2 °F 26% 30.36 in - ENE 10.4 mph - N/A   Clear
1:00 PM 78.8 °F 35.6 °F 21% 30.33 in - East 9.2 mph 20.7 mph N/A   Clear
2:00 PM 82 °F 36 °F 10%  in 12 mi East 10.4 mph - -   Haze
2:00 PM 82.4 °F 35.6 °F 19% 30.30 in - East 10.4 mph - N/A   Clear
3:00 PM 80.6 °F 33.8 °F 18% 30.30 in - East 11.5 mph - N/A   Clear
4:00 PM 80.6 °F 33.8 °F 18% 30.27 in - East 12.7 mph - N/A   Clear
5:00 PM 78.8 °F 30.2 °F 17% 30.27 in - East 11.5 mph - N/A   Clear
6:00 PM 73.4 °F 35.6 °F 25% 30.30 in - ENE 13.8 mph - N/A   Clear
7:00 PM 69.8 °F 39.2 °F 33% 30.30 in - ENE 13.8 mph - N/A   Clear
8:00 PM 65 °F 41 °F 29%  in 6 mi East 9.2 mph - -   Haze
8:00 PM 66.2 °F 41.0 °F 40% 30.33 in - East 9.2 mph - N/A   Clear
9:00 PM 62.6 °F 42.8 °F 48% 30.36 in - East 8.1 mph - N/A   Clear